[[{"header":{"parameterUnit":"m.s-1","parameterCategory":2,"la1":30.2992,"la2":30.254,"lo1":-89.0895,"lo2":-89.0443,"dy":0.0025,"dx":0.0025,"nx":19,"ny":19,"refTime":"2026-03-09T09:00:00:Z","depth":"0","parameterNumber":2,"parameterNumberName":"U-component_of_CURRENTS"},"data":[0,0,0,0.201,0.2011,0.2066,0.2066,0.2109,0.2109,0,0,0,0,0,0,0,0,0,0,0,0.1985,0.1986,0.201,0.2011,0.2066,0.2066,0.2109,0.2109,0,0,0,0,0,0,0,0,0,0,0,0.1985,0.1986,0.1986,0.2011,0.2066,0.2066,0.2108,0.2074,0,0,0,0,0,0,0,0,0,0,0.2024,0.2003,0.1985,0.1986,0.2012,0.2066,0.2066,0.2072,0.2076,0.2077,0,0.2084,0,0.21,0.2111,0.2111,0,0,0,0.201,0.2,0.2019,0.1986,0.2012,0.2065,0.2041,0.2074,0.2078,0.2081,0.2085,0.2087,0.2101,0.2112,0.2112,0.2195,0.2196,0,0,0.2007,0.1992,0.2016,0.2021,0.2025,0.2039,0.2042,0.2077,0.2077,0.2085,0.2088,0.2102,0.2112,0.2112,0.2194,0.2195,0,0,0,0.1999,0.199,0.2008,0.2019,0.2033,0.204,0.2044,0.2076,0.2083,0.2089,0.2102,0.2112,0.2112,0.2194,0.2195,0.2196,0,0,0,0.1997,0.1986,0.2007,0.1998,0.2032,0.2059,0.2042,0.208,0.2085,0.2102,0.2112,0.2113,0.2193,0.2194,0.2194,0.2199,0,0,0,0.1983,0.1984,0.1991,0.1997,0.2023,0.2059,0.2068,0.2082,0.2093,0.2111,0.2113,0.2192,0.2194,0.2193,0.2197,0.2258,0,0,0,0.1966,0.1973,0.199,0.2008,0.2022,0.2071,0.2068,0.2099,0.2115,0.2112,0.2193,0.2195,0.2193,0.2195,0.2256,0.2265,0.2275,0,0,0.1966,0.1973,0.1985,0.2002,0.204,0.2064,0.2112,0.2127,0.2141,0.2177,0.218,0.2195,0.2196,0.2258,0.2354,0.2361,0,0,0,0.198,0.1982,0.2,0.2025,0.2068,0.2107,0.2135,0.216,0.22,0.216,0.2226,0.2228,0.2266,0.2268,0.2275,0.2263,0.2202,0.2202,0.2201,0.193,0.1968,0.1988,0.2035,0.2074,0.2139,0.2178,0.2221,0.2224,0.2254,0.2252,0.233,0.2332,0.2337,0.2325,0.2276,0.2276,0.2276,0.2276,0.1913,0.1931,0.1976,0.2006,0.2067,0.2113,0.2214,0.2237,0.2319,0.2298,0.2335,0.2297,0.2344,0.2329,0.2277,0.2277,0.2277,0.2277,0.2277,0.1876,0.1896,0.1906,0.1952,0.2004,0.209,0.2183,0.2255,0.2324,0.2359,0.2399,0.2398,0.2368,0.239,0.2391,0.2391,0.2391,0.2392,0.2392,0.1842,0.1859,0.1865,0.1904,0.193,0.2012,0.2167,0.2257,0.2381,0.2419,0.2419,0.2403,0.2366,0.2341,0.2396,0.2396,0.2395,0.2395,0.2394,0.1817,0.1815,0.1819,0.1829,0.1887,0.192,0.21,0.2289,0.2408,0.2465,0.2482,0.2465,0.2474,0.2469,0.2448,0.2528,0.2528,0.2528,0.2528,0.1789,0.1795,0.1772,0.1768,0.1809,0.1877,0.1991,0.2184,0.2406,0.2483,0.2531,0.2487,0.2482,0.249,0.2484,0.2463,0.2545,0.2545,0.2545,0.1761,0.1762,0.1712,0.1704,0.1743,0.1813,0.186,0.2002,0.2343,0.2543,0.2517,0.2516,0.2447,0.244,0.2444,0.2437,0.24,0,0]},{"header":{"parameterUnit":"m.s-1","parameterCategory":2,"la1":30.2992,"la2":30.254,"lo1":-89.0895,"lo2":-89.0443,"dy":0.0025,"dx":0.0025,"nx":19,"ny":19,"refTime":"2026-03-09T09:00:00:Z","depth":"0","parameterNumber":3,"parameterNumberName":"V-component_of_CURRENTS"},"data":[0,0,0,0.006,0.0059,0.0007,0.0007,-0.008,-0.0081,0,0,0,0,0,0,0,0,0,0,0,0.0078,0.0078,0.006,0.0059,0.0007,0.0007,-0.008,-0.0081,0,0,0,0,0,0,0,0,0,0,0,0.0078,0.0078,0.0078,0.0059,0.0007,0.0007,-0.008,-0.0039,0,0,0,0,0,0,0,0,0,0,0.0012,0.004,0.0078,0.0078,0.0059,0.0007,0.0007,-0.0037,-0.0042,-0.0059,0,-0.0058,0,-0.0066,-0.0086,-0.0086,0,0,0,0.0046,0.0044,0.0029,0.0078,0.0058,0.0008,0.0027,-0.0039,-0.0045,-0.0065,-0.0059,-0.0062,-0.0068,-0.0087,-0.0087,-0.0085,-0.0084,0,0,0.0049,0.0065,0.0033,0.0027,0.0056,0.0029,0.0025,-0.0043,-0.0043,-0.0059,-0.0064,-0.0069,-0.0087,-0.0088,-0.0085,-0.0085,0,0,0,0.0066,0.0067,0.0054,0.003,0.0025,0.0027,0.0024,-0.004,-0.0044,-0.0065,-0.007,-0.0088,-0.0089,-0.0086,-0.0085,0.0026,0,0,0,0.0067,0.0078,0.0056,0.0064,0.0027,-0.0004,0.0028,-0.004,-0.0048,-0.007,-0.0088,-0.0089,-0.0087,-0.0085,0.0021,0.0068,0,0,0,0.0078,0.0079,0.0076,0.0065,0.0049,-0.0003,-0.0012,-0.0042,-0.005,-0.0087,-0.009,-0.0087,-0.0086,0.0017,0.0061,0.0115,0,0,0,0.0091,0.0122,0.0077,0.0111,0.0049,0.0062,-0.0012,-0.002,-0.0042,-0.0088,-0.0086,-0.0085,0.0016,0.0057,0.0111,0.0206,0.0234,0,0,0.0144,0.0129,0.0151,0.011,0.0147,0.0067,0.0103,0.0034,-0.0028,-0.007,-0.007,0.0023,0.006,0.0115,0.0288,0.0314,0,0,0,0.0177,0.0192,0.0196,0.0202,0.0187,0.018,0.0112,0.0083,0.0045,-0.0033,0.0021,0.0041,0.0071,0.012,0.014,0.0028,-0.0078,-0.0079,-0.0079,0.0263,0.0255,0.0295,0.0286,0.029,0.0254,0.0246,0.019,0.012,0.0123,0.013,0.0244,0.0298,0.0314,0.0197,0.0128,0.0129,0.0129,0.0129,0.0344,0.0383,0.036,0.0394,0.0382,0.0398,0.0361,0.0319,0.0308,0.0229,0.0254,0.0233,0.0343,0.021,0.0136,0.0135,0.0134,0.0134,0.0133,0.0402,0.0432,0.0424,0.0467,0.0503,0.0486,0.0561,0.0495,0.041,0.0434,0.046,0.0459,0.0342,0.0443,0.0444,0.0444,0.0445,0.0445,0.0445,0.0489,0.049,0.0531,0.0553,0.0596,0.0659,0.0674,0.0694,0.066,0.0589,0.0589,0.0379,0.0339,0.0326,0.0453,0.0451,0.0451,0.045,0.0449,0.0637,0.0599,0.0669,0.0704,0.0799,0.0923,0.0921,0.0979,0.0949,0.0947,0.0631,0.0666,0.0636,0.0619,0.0612,0.0805,0.0805,0.0805,0.0805,0.074,0.0721,0.0817,0.0887,0.0998,0.106,0.1252,0.1239,0.1001,0.084,0.0711,0.0646,0.0637,0.0599,0.0583,0.0571,0.0749,0.0748,0.0748,0.0865,0.086,0.095,0.0964,0.1086,0.1232,0.1399,0.1409,0.1017,0.0726,0.0537,0.0539,0.0417,0.0412,0.0325,0.0311,0.0281,0,0]}],[{"header":{"parameterUnit":"m.s-1","parameterCategory":2,"la1":30.2992,"la2":30.254,"lo1":-89.0895,"lo2":-89.0443,"dy":0.0025,"dx":0.0025,"nx":19,"ny":19,"refTime":"2026-03-09T09:00:00:Z","depth":"2","parameterNumber":2,"parameterNumberName":"U-component_of_CURRENTS"},"data":[0,0,0,0.2047,0.2049,0.2131,0.2131,0.218,0.2181,0,0,0,0,0,0,0,0,0,0,0,0.2008,0.2008,0.2047,0.2049,0.2131,0.2131,0.218,0.2181,0,0,0,0,0,0,0,0,0,0,0,0.2007,0.2008,0.2008,0.205,0.2131,0.2131,0.218,0.2132,0,0,0,0,0,0,0,0,0,0,0.206,0.2037,0.2008,0.2008,0.205,0.213,0.2131,0.213,0.2135,0.2128,0,0.2136,0,0.2164,0.2183,0.2183,0,0,0,0.2048,0.2033,0.2051,0.2008,0.2051,0.213,0.2094,0.2134,0.2139,0.2134,0.2137,0.2139,0.2165,0.2183,0.2183,0.2253,0.2254,0,0,0.2044,0.2027,0.2048,0.2055,0.2064,0.2091,0.2096,0.2137,0.214,0.2137,0.2141,0.2165,0.2183,0.2183,0.2253,0.2254,0,0,0,0.2032,0.2024,0.2042,0.2052,0.2074,0.2093,0.2099,0.2138,0.2143,0.2142,0.2166,0.2183,0.2184,0.2252,0.2253,0.2227,0,0,0,0.2029,0.2017,0.204,0.2032,0.2073,0.2117,0.2099,0.214,0.2146,0.2166,0.2183,0.2184,0.2252,0.2253,0.2226,0.2237,0,0,0,0.2005,0.2016,0.2021,0.2031,0.2068,0.2117,0.2125,0.2142,0.2161,0.2183,0.2184,0.2251,0.2253,0.2225,0.2235,0.2289,0,0,0,0.199,0.1985,0.2021,0.2026,0.2067,0.2109,0.2125,0.2167,0.2187,0.2184,0.2252,0.2253,0.2225,0.2235,0.2287,0.2263,0.2267,0,0,0.1971,0.1982,0.1985,0.2019,0.2045,0.2099,0.2135,0.2172,0.2204,0.2232,0.2235,0.2226,0.2235,0.2288,0.2335,0.2338,0,0,0,0.1971,0.1972,0.1985,0.2014,0.2057,0.2108,0.2156,0.2186,0.2236,0.2224,0.226,0.2268,0.2301,0.2284,0.2287,0.2259,0.2259,0.2259,0.2259,0.1906,0.1943,0.1956,0.2005,0.2041,0.2121,0.2164,0.2222,0.2233,0.2267,0.2269,0.2326,0.2307,0.2309,0.2285,0.2285,0.2285,0.2285,0.2285,0.1877,0.1899,0.1946,0.1973,0.2037,0.2081,0.2179,0.2211,0.2292,0.2287,0.232,0.2286,0.231,0.2284,0.2284,0.2284,0.2284,0.2284,0.2284,0.1844,0.1869,0.1879,0.1929,0.1985,0.2065,0.2153,0.2225,0.2294,0.2324,0.2352,0.2352,0.2319,0.2353,0.2353,0.2354,0.2354,0.2354,0.2354,0.1822,0.184,0.1848,0.189,0.192,0.2002,0.2145,0.2223,0.2325,0.2355,0.2355,0.2351,0.2348,0.2326,0.2358,0.2358,0.2357,0.2357,0.2356,0.1823,0.181,0.1818,0.1829,0.1891,0.1915,0.2075,0.2228,0.233,0.2373,0.2382,0.238,0.24,0.2398,0.2379,0.2423,0.2423,0.2423,0.2423,0.1811,0.181,0.1795,0.1792,0.1828,0.1881,0.194,0.204,0.2208,0.2252,0.2259,0.2198,0.2201,0.2207,0.2209,0.2185,0.2179,0.2178,0.2177,0.181,0.1805,0.1767,0.175,0.1779,0.1823,0.1794,0.1761,0.1932,0.2162,0.2153,0.2419,0.2347,0.2344,0.2367,0.2365,0.2332,0,0]},{"header":{"parameterUnit":"m.s-1","parameterCategory":2,"la1":30.2992,"la2":30.254,"lo1":-89.0895,"lo2":-89.0443,"dy":0.0025,"dx":0.0025,"nx":19,"ny":19,"refTime":"2026-03-09T09:00:00:Z","depth":"2","parameterNumber":3,"parameterNumberName":"V-component_of_CURRENTS"},"data":[0,0,0,-0.0016,-0.0017,-0.0067,-0.0068,-0.0156,-0.0156,0,0,0,0,0,0,0,0,0,0,0,0.0002,0.0002,-0.0016,-0.0017,-0.0067,-0.0068,-0.0155,-0.0156,0,0,0,0,0,0,0,0,0,0,0,0.0002,0.0002,0.0002,-0.0017,-0.0067,-0.0068,-0.0155,-0.0115,0,0,0,0,0,0,0,0,0,0,-0.0064,-0.0037,0.0002,0.0002,-0.0017,-0.0067,-0.0068,-0.0113,-0.0117,-0.0135,0,-0.0133,0,-0.0141,-0.0161,-0.0162,0,0,0,-0.003,-0.0033,-0.0046,0.0002,-0.0017,-0.0067,-0.0048,-0.0115,-0.012,-0.0141,-0.0134,-0.0138,-0.0143,-0.0162,-0.0162,-0.0163,-0.0163,0,0,-0.0027,-0.0012,-0.0042,-0.0049,-0.0019,-0.0047,-0.005,-0.0118,-0.0119,-0.0135,-0.014,-0.0144,-0.0162,-0.0163,-0.0164,-0.0163,0,0,0,-0.001,-0.001,-0.0022,-0.0046,-0.005,-0.0048,-0.0051,-0.0116,-0.012,-0.014,-0.0145,-0.0163,-0.0164,-0.0165,-0.0164,-0.0066,0,0,0,-0.0009,0.0001,-0.002,-0.0012,-0.0048,-0.008,-0.0048,-0.0115,-0.0123,-0.0145,-0.0163,-0.0165,-0.0165,-0.0164,-0.007,-0.0023,0,0,0,0.0002,0.0002,0.0,-0.0011,-0.0027,-0.0079,-0.0087,-0.0117,-0.0125,-0.0162,-0.0165,-0.0166,-0.0164,-0.0073,-0.003,0.0013,0,0,0,0.0013,0.0035,0.0001,0.0024,-0.0026,-0.002,-0.0086,-0.0096,-0.0118,-0.0163,-0.0165,-0.0164,-0.0074,-0.0034,0.0009,0.0049,0.007,0,0,0.0052,0.004,0.0055,0.0024,0.0052,-0.0015,0.0011,-0.0052,-0.0106,-0.0149,-0.0149,-0.0068,-0.003,0.0012,0.0126,0.0145,0,0,0,0.0075,0.0088,0.0089,0.0095,0.008,0.0076,0.0016,-0.0009,-0.0043,-0.0111,-0.0069,-0.0048,-0.0024,-0.0008,0.0007,-0.0157,-0.0158,-0.0158,-0.0158,0.0145,0.0139,0.0172,0.0165,0.0168,0.0138,0.013,0.0084,0.0021,0.0027,0.0032,0.0132,0.0151,0.0162,0.0029,0.0029,0.003,0.003,0.003,0.0216,0.0242,0.0234,0.0264,0.0256,0.0271,0.0235,0.0199,0.0188,0.0122,0.014,0.0094,0.0185,0.0038,0.0037,0.0035,0.0035,0.0034,0.0034,0.0265,0.0282,0.0292,0.0335,0.0372,0.0355,0.0412,0.0358,0.0283,0.0303,0.0293,0.0292,0.0188,0.0309,0.0309,0.0309,0.031,0.031,0.031,0.0319,0.0333,0.0375,0.041,0.0451,0.0507,0.0514,0.0519,0.0473,0.0408,0.0407,0.0225,0.0216,0.0203,0.0317,0.0316,0.0315,0.0314,0.0314,0.0396,0.0398,0.0464,0.0506,0.0605,0.0691,0.0693,0.0705,0.0679,0.0661,0.0457,0.0452,0.042,0.0407,0.0398,0.0555,0.0555,0.0555,0.0555,0.0457,0.0455,0.0563,0.0641,0.0742,0.0787,0.0878,0.0833,0.0716,0.0614,0.0611,0.0559,0.0549,0.0519,0.0503,0.0493,0.0676,0.0676,0.0676,0.0522,0.054,0.063,0.0692,0.0805,0.0893,0.0939,0.0892,0.0739,0.0677,0.06,0.0569,0.0482,0.0469,0.0409,0.0389,0.0367,0,0]}],[{"header":{"parameterUnit":"m.s-1","parameterCategory":2,"la1":30.2992,"la2":30.254,"lo1":-89.0895,"lo2":-89.0443,"dy":0.0025,"dx":0.0025,"nx":19,"ny":19,"refTime":"2026-03-09T09:00:00:Z","depth":"4","parameterNumber":2,"parameterNumberName":"U-component_of_CURRENTS"},"data":[0,0,0,0.1233,0.1236,0.1361,0.1361,0.1477,0.1478,0,0,0,0,0,0,0,0,0,0,0,0.1198,0.12,0.1233,0.1236,0.1361,0.1361,0.1477,0.1478,0,0,0,0,0,0,0,0,0,0,0,0.1198,0.1199,0.1201,0.1237,0.1361,0.1361,0.1476,0.1392,0,0,0,0,0,0,0,0,0,0,0.1276,0.1252,0.1199,0.1201,0.1238,0.136,0.1361,0.1388,0.1397,0.141,0,0.1445,0,0.1464,0.1485,0.1485,0,0,0,0.1231,0.1245,0.1279,0.1201,0.1239,0.136,0.1303,0.1394,0.1404,0.1421,0.1447,0.1452,0.1466,0.1486,0.1486,0.1605,0.1605,0,0,0.1224,0.1217,0.1272,0.1286,0.1292,0.1299,0.1307,0.14,0.1418,0.1448,0.1455,0.1468,0.1486,0.1487,0.1604,0.1605,0,0,0,0.1208,0.1212,0.1245,0.1281,0.1307,0.1303,0.1312,0.1414,0.1426,0.1456,0.1469,0.1487,0.1488,0.1604,0.1604,0.1661,0,0,0,0.1203,0.1203,0.1242,0.1238,0.1306,0.1368,0.1324,0.142,0.1431,0.1468,0.1487,0.1489,0.1603,0.1604,0.1658,0.1686,0,0,0,0.1189,0.1201,0.1222,0.1237,0.1293,0.1367,0.1385,0.1423,0.1439,0.1485,0.149,0.1603,0.1604,0.1656,0.1682,0.1728,0,0,0,0.1166,0.1207,0.1223,0.1274,0.1292,0.1366,0.1384,0.1446,0.1488,0.1488,0.1603,0.1604,0.1655,0.1679,0.1726,0.149,0,0,0,0.1198,0.1211,0.1239,0.1255,0.1325,0.1347,0.1427,0.149,0.1508,0.1567,0.157,0.1659,0.1681,0.1728,0.1559,0,0,0,0,0.1234,0.126,0.1283,0.1333,0.138,0.1447,0.1495,0.1528,0.1607,0.1541,0.1666,0.1679,0.1706,0.156,0.161,0.161,0.161,0.1609,0.1609,0.1266,0.129,0.1342,0.1388,0.144,0.152,0.1581,0.1637,0.1641,0.1687,0.173,0.1812,0.1659,0.1734,0.1734,0.1735,0.1735,0.1735,0.1735,0.1303,0.1308,0.138,0.1441,0.1512,0.1589,0.1686,0.1717,0.1814,0.179,0.1814,0.1636,0.1741,0.174,0.1739,0.1738,0.1738,0.1737,0.1737,0.1286,0.1282,0.1357,0.144,0.1545,0.1635,0.172,0.1807,0.1872,0.1915,0.1762,0.1858,0.1847,0.1933,0.1933,0.1934,0.1934,0.1934,0.1934,0.12,0.1268,0.132,0.1427,0.1491,0.1594,0.1746,0.1798,0.189,0.1808,0.1941,0.1879,0.1872,0.1859,0.194,0.1939,0.1938,0.1938,0.1937,0.1098,0.1159,0.1215,0.1285,0.1415,0.1476,0.1649,0.1705,0.1754,0.1743,0.1745,0.1753,0.1713,0.1711,0.169,0.1725,0.1722,0.1719,0,0.1011,0.1049,0.1115,0.1186,0.1252,0.1389,0.1402,0.1495,0.159,0.1535,0.1766,0.1766,0.177,0.1722,0.1716,0.1689,0,0,0,0.0933,0.0972,0.0987,0.1092,0.1166,0.1254,0.1393,0.1371,0.1576,0.1552,0.1651,0.1669,0.182,0.1956,0.1914,0.1907,0.1883,0,0]},{"header":{"parameterUnit":"m.s-1","parameterCategory":2,"la1":30.2992,"la2":30.254,"lo1":-89.0895,"lo2":-89.0443,"dy":0.0025,"dx":0.0025,"nx":19,"ny":19,"refTime":"2026-03-09T09:00:00:Z","depth":"4","parameterNumber":3,"parameterNumberName":"V-component_of_CURRENTS"},"data":[0,0,0,0.0054,0.0053,0.0022,0.0022,-0.0035,-0.0036,0,0,0,0,0,0,0,0,0,0,0,0.0064,0.0064,0.0054,0.0053,0.0022,0.0021,-0.0035,-0.0036,0,0,0,0,0,0,0,0,0,0,0,0.0064,0.0064,0.0063,0.0053,0.0022,0.0021,-0.0035,-0.0008,0,0,0,0,0,0,0,0,0,0,0.0024,0.0038,0.0064,0.0063,0.0053,0.0022,0.0021,-0.0007,-0.001,-0.0024,0,-0.0027,0,-0.003,-0.0039,-0.004,0,0,0,0.0048,0.0041,0.0032,0.0063,0.0053,0.0022,0.0035,-0.0008,-0.0012,-0.0028,-0.0027,-0.0029,-0.0031,-0.004,-0.004,-0.0061,-0.0061,0,0,0.005,0.0056,0.0035,0.003,0.0047,0.0036,0.0034,-0.001,-0.0014,-0.0028,-0.0031,-0.0032,-0.004,-0.0041,-0.0062,-0.0061,0,0,0,0.0059,0.0057,0.005,0.0032,0.0029,0.0035,0.0033,-0.0012,-0.0014,-0.0031,-0.0033,-0.004,-0.0041,-0.0062,-0.0061,-0.0012,0,0,0,0.0059,0.0063,0.0051,0.0054,0.003,0.0011,0.0032,-0.0011,-0.0016,-0.0033,-0.004,-0.0042,-0.0062,-0.0062,-0.0013,0.003,0,0,0,0.0065,0.0063,0.006,0.0055,0.0043,0.0012,0.0007,-0.0012,-0.0017,-0.004,-0.0042,-0.0062,-0.0062,-0.0015,0.0026,0.0046,0,0,0,0.0071,0.007,0.0061,0.0061,0.0044,0.0038,0.0007,-0.0005,-0.0021,-0.0041,-0.0062,-0.0061,-0.0015,0.0024,0.0044,0.0047,0,0,0,0.0075,0.0071,0.0073,0.0063,0.0072,0.0042,0.0048,0.0011,-0.002,-0.005,-0.0051,-0.0013,0.0026,0.0046,0.0071,0,0,0,0,0.0077,0.0083,0.0082,0.0085,0.0075,0.008,0.0042,0.0025,0.0,-0.0027,-0.0018,0.0005,0.0016,0.0011,-0.0059,-0.0059,-0.006,-0.006,-0.006,0.0097,0.0098,0.0115,0.0119,0.0117,0.0102,0.0098,0.0069,0.0026,0.0023,0.0041,0.0087,0.0083,0.0023,0.0023,0.0024,0.0024,0.0024,0.0024,0.0128,0.0132,0.0153,0.0172,0.0176,0.0181,0.0155,0.0131,0.012,0.008,0.0086,0.0058,0.0029,0.0028,0.0027,0.0027,0.0026,0.0026,0.0026,0.0149,0.0144,0.0179,0.0215,0.0248,0.0241,0.0269,0.0237,0.0182,0.0192,0.017,0.0125,0.0126,0.0187,0.0188,0.0188,0.0188,0.0189,0.0189,0.0132,0.0164,0.0201,0.0253,0.0289,0.033,0.0338,0.0329,0.0281,0.0245,0.0211,0.0142,0.0137,0.0135,0.0193,0.0192,0.0192,0.0191,0.0191,0.0095,0.0131,0.0188,0.0237,0.0327,0.0377,0.0403,0.0386,0.0376,0.0342,0.026,0.0256,0.024,0.0233,0.0234,0.0323,0.0323,0.0323,0,0.0058,0.0083,0.0156,0.0237,0.0324,0.0388,0.0416,0.0413,0.0352,0.034,0.0341,0.0248,0.0244,0.0224,0.0218,0.0218,0,0,0,0.0017,0.0056,0.0099,0.0205,0.0314,0.0375,0.042,0.0404,0.0376,0.037,0.033,0.0329,0.0261,0.0206,0.0172,0.0165,0.0161,0,0]}]]